COSMOS 249 DEB, 19362

Orbit data source: Space-Track

COSMOS 249 DEB, 19362 is space debris in LEO originally from a launch on Sun, 20 Oct 1968 UTC launched from the Tyuratam Missile And Space Complex (TTMTR). Debris objects in space refer to the collection of defunct objects orbiting the Earth. Examples of debris include non-operational satellites, rocket bodies, and fragments generated from explosions, collisions, or faulty payload assembly.

Loading next visibility...
Identifier
19362, 1968-091DJ
Orbit
LEO
Country
Flag of CISCIS
Related business
Manufacturer
Unknown
Mission
Spacecraft
Bus & Motor
Unknown
Mass
Unknown
Launch date (UTC)
1968-10-20 (57 years ago)
Launch vehicle
Unknown
Launch site
Tyuratam Missile And Space Complex (TTMTR)
Object type
Payload
Rocket body
Debris
Shape & HBR
Unknown shape, 0.1 m
Radar Cross Section
Small (<0.1 m²)

Expand to show TLE details & history
Last TLE update: 10 hours ago

TLE from 10 hours ago
0 COSMOS 249 DEB
1 19362U 68091DJ  25340.86314906  .00011103  00000-0  16166-2 0  9994
2 19362  62.7664 189.1483 0466227  29.8452 332.8339 14.22360743892579
Epoch: 2025-12-06T20:42Z
TLE epoch observation values (Epoch: 2025-12-06T20:42:56.078Z)
Latitude
-0.00004°
Longitude
162.52983°
Altitude
524.135 km
Speed
7.756 km/s
True Right ascension
12h 36m 35s
True Declination
0° 00' 00"
Sunlit
Object was in daylight at epoch
Visualization orbit readout
Latitude
Unknown
Longitude
Unknown
Altitude
Unknown
Speed
Unknown
Apparent Right ascension
Unknown
Apparent Declination
Unknown
Sunlit
N/A
Visualization observer readout
Local Sidereal Time
05:04:08
Azimuth
Unknown
Elevation
Unknown
Doppler factor
Unknown
Orbital elements
Apogee altitude
1,151.665 km
Perigee altitude
480.822 km
Semi-major axis
7,194.38 km
Eccentricity
0.04662
Inclination
62.7664°
RAAN
189.1483°
Arg. of periapsis
29.8452°
True anomaly
330.26243°
Mean anomaly
332.8339°
Eccentric anomaly
331.56181°
Mean motion
3.55675 °/min
Orbital period
101.22 mins
BSTAR
0.0016166
Loading maneuver chart data...
Computing Atmospheric mass density...

Documentation

Showing up to 5 results
|